Other Public Products
Issued by NWS Grand Forks, ND

Home | Current Version | Previous Version | Text Only | Print | Product List | Glossary On
Versions: 1 2 3 4 5 6 7 8 9 10 11 12 13 14 15 16 17 18 19 20 21 22 23 24 25 26 27 28 29 30 31 32 33 34 35 36 37 38 39 40 41 42 43 44 45 46 47 48 49 50
000
FPUS83 KFGF 270431
OPUFGF
PRAIRIE TO PINES WEATHER ROUNDUP
NATIONAL WEATHER SERVICE EASTERN NORTH DAKOTA/GRAND FORKS ND
1100 PM CDT THU MAR 26 2015

 **SATELLITE DATA USED TO AUGMENT SKY COVER AT AUTOMATED STATIONS**
 *****  WEATHER ACROSS EASTERN NORTH DAKOTA  *****

CITY           SKY/WX    TMP DP  RH WIND       PRES   REMARKS
GRAND FORKS    CLEAR     19  14  81 N3        30.31S
GRAND FORKS AF CLEAR     19  14  82 NE3       30.30S
GRAND CITY NWS   N/A     18 N/A N/A VRB2        N/A
BUXTON           N/A     21  15  78 CALM        N/A
DEVILS LAKE    CLEAR     21  16  79 SE5       30.26F WCI  15
FARGO          CLEAR     20  10  65 N5        30.30S WCI  13
WAHPETON ARPT  CLEAR     19   9  63 NW7       30.30S WCI  10
$$

 *****  WEATHER ACROSS CENTRAL AND WESTERN NORTH DAKOTA  *****

CITY           SKY/WX    TMP DP  RH WIND       PRES   REMARKS
JAMESTOWN      CLEAR     21  14  74 E5        30.27S WCI  15
BISMARCK       CLEAR     25  17  72 E7        30.25S WCI  17
MINOT          CLEAR     27  17  66 SE9       30.21S WCI  18
MINOT AFB      CLEAR     27  24  90 SE10      30.20S WCI  17
GARRISON         N/A     27  20  75 SE6       30.20F WCI  20
WILLISTON      CLOUDY    38  27  64 SE8       30.14S
DICKINSON      CLOUDY    32  27  81 S9        30.14S WCI  24
HETTINGER      CLOUDY    32  26  78 SE9       30.18S WCI  24
$$

 *****  OTHER OBSERVATIONS NORTHEAST NORTH DAKOTA  *****

CITY           SKY/WX    TMP DP  RH WIND       PRES   REMARKS
WALHALLA         N/A     19  19 100 CALM      30.31S
LANGDON        NOT AVBL
CAVALIER       FAIR      23  16  74 E3        30.31S
GRAFTON        NOT AVBL
CANDO          FAIR      23  21  93 SE6       30.27S WCI  16
FORT TOTTEN      N/A     22  16  76 SE2       29.95
ROLLA          FAIR      23  23 100 SE6       30.24S WCI  16
RUGBY            N/A     25  21  86 SE10      30.24S WCI  15
 ***** THE ABOVE OBSERVATIONS ARE NON NWS ARE NOT QUALITY
        CONTROLLED AND MAY MIS-REPORT RAIN FOR SNOW...
$$

 *****  OTHER OBSERVATIONS SOUTHEAST NORTH DAKOTA *****

CITY           SKY/WX    TMP DP  RH WIND       PRES   REMARKS
COOPERSTOWN    NOT AVBL
VALLEY CITY    FAIR      19  18  93 CALM      30.28S
OAKES            N/A     21  16  79 NE6       30.29S WCI  14
GWINNER        CLEAR     23  14  68 N5          N/A  WCI  17
SHEYENNE NWR     N/A     22  11  63 N2        29.95S
BUFFALO        NOT AVBL
WYNDMERE       NOT AVBL
 ***** THE ABOVE OBSERVATIONS ARE NON NWS ARE NOT QUALITY
       CONTROLLED AND MAY MIS-REPORT RAIN FOR SNOW...
$$

  *****  WEATHER ACROSS NORTHERN MINNESOTA  *****

CITY           SKY/WX    TMP DP  RH WIND       PRES   REMARKS
FLAG ISLAND    CLEAR     16   7  67 CALM      30.27S
WARROAD        CLEAR     19   9  63 N6        30.28S WCI  11
ROSEAU         CLEAR     18  10  73 N3        30.28S
HALLOCK        CLEAR     19   9  63 NE5       30.31R WCI  13
THF RVR FALLS  CLEAR     21   7  53 N7        30.29S WCI  13
HALSTAD          N/A     16   9  72 N8          N/A  WCI   5
FOSSTON        CLEAR     16  10  79 N6        30.27S WCI   7
BAUDETTE       CLEAR     17   5  59 N6        30.26S WCI   9
WASKISH        FAIR      16   5  62 CALM      30.23F
CROOKSTON      CLEAR     21  12  68 N6        30.31S WCI  14
$$
  *****  WEATHER ACROSS CENTRAL AND WEST MINNESOTA  *****

CITY           SKY/WX    TMP DP  RH WIND       PRES   REMARKS
BEMIDJI        CLEAR     15   2  57 W3        30.25S
PARK RAPIDS    CLEAR     18   1  47 N6        30.23R WCI  10
WADENA         CLEAR     18  10  73 NW7       30.23F WCI   8
DETROIT LAKES  CLEAR     19  14  79 NW5       30.26S WCI  13
MOORHEAD       CLEAR     18  10  73 N3        30.30S
FERGUS FALLS   FAIR      18   9  68 N8        30.30S WCI   7
ELBOW LAKE     FAIR      20  12  71 N6        30.26S WCI  12
MORRIS MN      CLEAR     23  14  68 N10       30.25S WCI  12
STAPLES        CLEAR     19   0  42 N5        30.24R WCI  13
WHEATON        CLEAR     19  10  68 NW7       30.30S WCI  10
$$
  *****  WEATHER ELSEWHERE ACROSS MINNESOTA  *****

CITY           SKY/WX    TMP DP  RH WIND       PRES   REMARKS
DULUTH         CLEAR     20   1  43 N8        30.18R WCI  10
INTRNTL FALLS  CLEAR     17   1  49 N3        30.25R
ELY            CLEAR     14   1  57 CALM      30.21S
CLOQUET        CLEAR     19  -4  35 N5        30.20R WCI  13
BRAINERD       CLEAR     22   2  42 N10       30.23R WCI  11
HIBBING        CLEAR     17  -2  43 N6        30.20S WCI   9
ALEXANDRIA     CLEAR     23  11  60 N10       30.23S WCI  12
SAINT CLOUD    CLEAR     25   7  46 N10       30.22R WCI  15
MINNEAPOLIS    CLEAR     27   7  42 N8        30.20R WCI  19
$$

  *****  WEATHER ACROSS SOUTH DAKOTA  *****

CITY           SKY/WX    TMP DP  RH WIND       PRES   REMARKS
SIOUX FALLS    PTCLDY    25  16  68 N10       30.24R WCI  15
BROOKINGS      NOT AVBL
WATERTOWN      CLEAR     19  11  70 N7        30.24R WCI  10
HURON          CLEAR     21  12  68 NE7       30.27R WCI  12
SISSETON         N/A     22  16  78 N9        30.28S WCI  12
ABERDEEN       CLEAR     22  13  68 NE7       30.29R WCI  13
MITCHELL       CLEAR     24  15  68 NE6       30.27R WCI  17
PIERRE         MOCLDY    30  27  88 CALM      30.23S
MOBRIDGE       CLOUDY    30  16  56 E9        30.22R WCI  22
RAPID CITY     CLOUDY    34  27  75 SE10      30.17R
$$

  *****  SOME WEATHER IN NEARBY STATES *****

CITY           SKY/WX    TMP DP  RH WIND       PRES   REMARKS
GLASGOW MT     CLOUDY    42  32  67 E16       30.04S
GREAT FALLS MT PTCLDY    48  36  63 SW10      30.12S
CHEYENNE WY    CLOUDY    43  26  51 E5        30.18R
SCOTTSBLUFF NE CLOUDY    44  34  67 SW5       30.15S
OMAHA NE       PTCLDY    33  31  92 N7        30.21R
DES MOINES IA  CLOUDY    35  22  58 N15       30.18R
DAVENPORT IA   PTCLDY    27  21  78 NW7       30.13R WCI  19
CHICAGO IL     CLOUDY    33  18  53 N10       30.06R WCI  25
EAU CLAIRE WI  CLEAR     24   6  46 N5        30.17R WCI  18
LA CROSSE WI   CLOUDY    32  17  54 N6        30.15R
$$

  *****  SOME NATIONAL WEATHER *****

CITY           SKY/WX    TMP DP  RH WIND       PRES   REMARKS
LA GUARDIA NY  CLOUDY    45  41  86 N9        29.64F
RALEIGH NC     CLOUDY    68  56  65 SW12      29.72S
ATLANTA GA     CLOUDY    65  57  75 W7        29.79S
NEW ORLEANS LA CLOUDY    65  62  90 W8        29.90R
OKLAHOMA CITY  CLEAR     43  34  70 S7        30.08S
ALBUQUERQUE NM PTCLDY    51  19  28 E5        30.26R
SALT LAKE CITY PTCLDY    50  31  48 SW3       30.33R
LOS ANGELES CA CLEAR     68  53  58 W8        30.03R
BOISE ID       CLEAR     54  39  57 CALM      30.26R
SEATTLE WA     PTCLDY    60  48  64 N8        30.15S
$$

*** WEATHER ACROSS MANITOBA...SASKATCHEWAN AND ONTARIO ***
                ***ONTARIO***

CITY           SKY/WX    TMP DP  RH WIND       PRES   REMARKS
GERALDTON      CLEAR      1  -9  60 NW3       30.18S
THUNDER BAY    CLEAR     12   3  67 NW6       30.22R WCI   3
SIOUX LOOKOUT  CLEAR      1  -2  85 N2        30.23S
TORONTO        MOCLDY    34  27  75 W8        29.82F
BIG TROUT LK   CLEAR     -4  -9  77 NW3       30.24F
PICKLE LAKE    NOT AVBL
DRYDEN         CLEAR     12   3  67 NW5       30.24R WCI   4
KENORA         CLEAR     16   0  48 N3        30.26S
$$
                *** MANITOBA***

CITY           SKY/WX    TMP DP  RH WIND       PRES   REMARKS
BRANDON        CLEAR     23  18  80 SE7       30.25F WCI  15
DAUPHIN        CLEAR     12  10  92 S2        30.25S
ISLAND LAKE    CLEAR      5  -4  66 VRB2      30.26F
PILOT MOUND      N/A     23  19  86 SE6         N/A  WCI  16
THE PAS        PTCLDY    18  14  86 SE10      30.17F WCI   6
THOMPSON       CLEAR      5  -8  56 CALM      30.18F
WINNIPEG       CLEAR     18   9  68 E5        30.32F WCI  11
LYNN LAKE      CLEAR     16   5  62 S5        30.10S WCI   9
CHURCHILL      CLEAR      5  -6  61 SW7       30.15F WCI  -7
GILLAM         CLEAR      9  -8  47 SW6       30.20F WCI  -1
$$
                ***SASKATCHEWAN***

CITY           SKY/WX    TMP DP  RH WIND       PRES   REMARKS
ESTEVAN        PTCLDY    30  25  80 SE10      30.14F WCI  21
KINDERSLEY     MOCLDY    36  32  87 S7        29.96S
LLOYDMINSTER   CLOUDY    34  32  93 S7        29.92F
PRINCE ALBERT  FLURRIES  32  27  80 SE6       30.04F
REGINA         FLURRIES  34  30  86 SE16      30.09F WCI  23



USA.gov is the U.S. government's official web portal to all federal, state and local government web resources and services.